EW3708 Weather Reports


time (UTC)temp
C
wind
direction
speed
KPH
gust
KPH
rain 1hr
cm
rain 24hr
cm
rain mn
cm
humidity
%
barometer
mb
20260903093023 17 193 0.0 3.2 0.00 1.60 0.71 96 1015.0
20260903091533 17 193 0.0 3.2 0.00 1.60 0.71 96 1014.5
20260903090022 17 221 1.6 4.8 0.00 1.60 0.71 96 1014.3
20260903084520 17 177 0.0 3.2 0.00 1.60 0.71 96 1014.4
20260903083018 17 177 0.0 1.6 0.03 1.60 0.71 96 1014.5
20260903081518 17 177 0.0 1.6 0.10 1.60 0.71 96 1014.6
20260903080018 17 177 0.0 3.2 0.20 1.60 0.71 96 1014.8
20260903074516 17 176 0.0 4.8 0.28 1.60 0.71 96 1014.4
20260903073028 17 204 1.6 4.8 0.30 1.57 0.71 96 1014.4
20260903071518 17 148 1.6 4.8 0.25 1.50 0.64 96 1014.7
20260903070013 17 240 0.0 3.2 0.15 1.40 0.53 96 1016.1
20260903064510 17 234 1.6 4.8 0.08 1.32 0.46 96 1016.4
20260903063011 17 234 0.0 1.6 0.05 1.27 0.41 96 1015.7
20260903061509 17 234 0.0 3.2 0.08 1.24 0.38 96 1015.3
20260903060007 17 338 0.0 3.2 0.13 1.24 0.38 96 1015.5
20260903054505 17 338 0.0 3.2 0.18 1.24 0.38 96 1015.8
20260903053003 17 338 0.0 3.2 0.20 1.22 0.36 96 1016.1
20260903051502 17 338 0.0 3.2 0.23 1.17 0.30 96 1016.6
20260903050001 17 338 0.0 3.2 0.25 1.12 0.25 96 1016.8
20260903044601 17 338 0.0 3.2 0.25 1.07 0.20 96 1016.5
20260903043201 17 338 0.0 1.6 0.33 1.02 0.15 96 1016.5
20260903041602 18 338 0.0 1.6 0.69 0.94 0.08 96 1016.6
20260903040053 18 338 0.0 3.2 0.71 0.86 0.00 96 1017.4
20260903034552 18 338 0.0 1.6 0.76 0.81 0.81 96 1017.9
20260903033053 18 338 1.6 3.2 0.66 0.69 0.69 96 1018.9
20260903031554 18 289 4.8 11.3 0.23 0.25 0.25 96 1018.5
20260903030050 18 165 1.6 4.8 0.10 0.13 0.13 96 1017.5
20260903024549 18 186 1.6 4.8 0.03 0.05 0.05 96 1016.8
20260903023049 18 196 1.6 3.2 0.00 0.03 0.03 96 1016.8
20260903021548 18 196 0.0 3.2 0.00 0.03 0.03 96 1016.7
20260903020048 18 196 0.0 3.2 0.00 0.03 0.03 96 1017.3
20260903014550 18 196 1.6 3.2 0.00 0.03 0.03 96 1016.9
20260903013055 18 198 0.0 4.8 0.00 0.03 0.03 96 1017.4
20260903011546 18 156 0.0 3.2 0.00 0.03 0.03 96 1016.9
20260903010048 18 159 0.0 3.2 0.00 0.03 0.03 96 1016.5
20260903004544 18 159 0.0 3.2 0.00 0.03 0.03 95 1016.6
20260903003045 18 158 0.0 3.2 0.00 0.03 0.03 95 1016.7
20260903001543 18 162 1.6 4.8 0.00 0.03 0.03 95 1016.7
20260903000044 18 163 0.0 3.2 0.00 0.03 0.03 95 1016.8
20260902234548 18 163 0.0 3.2 0.00 0.05 0.03 95 1016.5
20260902233040 18 144 0.0 4.8 0.00 0.05 0.03 95 1016.2
20260902231540 18 252 1.6 4.8 0.00 0.05 0.03 95 1016.2
20260902230040 18 189 1.6 4.8 0.00 0.05 0.03 95 1016.4
20260902224600 18 202 0.0 3.2 0.00 0.05 0.03 95 1016.6
20260902223038 18 188 0.0 4.8 0.00 0.05 0.03 95 1016.6
20260902221538 18 159 1.6 4.8 0.00 0.05 0.03 95 1016.8
20260902220040 18 161 1.6 4.8 0.00 0.05 0.03 95 1016.9
20260902214536 18 170 0.0 3.2 0.00 0.28 0.03 96 1016.9
20260902213036 18 170 1.6 4.8 0.00 0.28 0.03 95 1017.0
20260902211537 18 160 0.0 3.2 0.00 0.28 0.03 95 1016.9
20260902210035 18 161 0.0 6.4 0.00 0.28 0.03 95 1016.6
20260902204539 18 38 0.0 3.2 0.00 0.33 0.03 95 1016.6
20260902203036 18 35 0.0 3.2 0.00 0.33 0.03 95 1016.6
20260902201539 19 215 0.0 4.8 0.00 0.33 0.03 95 1017.0
20260902200049 19 126 0.0 4.8 0.00 0.33 0.03 95 1017.0
20260902194532 19 173 0.0 4.8 0.00 0.33 0.03 95 1016.9
20260902193032 19 176 1.6 4.8 0.00 0.33 0.03 96 1017.2
20260902191534 19 204 0.0 4.8 0.00 0.33 0.03 96 1016.7
20260902190047 18 167 0.0 4.8 0.00 0.33 0.03 95 1016.9
20260902184533 18 160 0.0 3.2 0.00 0.33 0.03 95 1017.1
20260902183030 18 207 1.6 4.8 0.00 0.33 0.03 95 1017.3
20260902181530 18 155 0.0 8.0 0.00 0.33 0.03 95 1017.7
20260902180029 18 178 1.6 4.8 0.00 0.33 0.03 95 1018.1
20260902174528 18 178 0.0 3.2 0.00 0.33 0.03 95 1018.1
20260902173028 18 178 1.6 4.8 0.00 0.33 0.03 95 1018.3
20260902171528 18 179 0.0 3.2 0.00 0.33 0.03 95 1018.1
20260902170027 18 149 1.6 6.4 0.03 0.33 0.03 95 1018.0
20260902164525 18 148 0.0 4.8 0.03 0.33 0.03 95 1017.9
20260902163026 18 202 0.0 3.2 0.03 0.33 0.03 95 1017.9
20260902161530 18 202 0.0 4.8 0.03 0.33 0.03 95 1017.9
20260902160031 18 120 1.6 4.8 0.00 0.30 0.00 95 1017.8
20260902154527 18 178 1.6 4.8 0.00 0.30 0.00 95 1018.0
20260902153024 18 232 0.0 3.2 0.00 0.30 0.00 95 1018.0
20260902151523 18 132 1.6 4.8 0.00 0.30 0.00 94 1018.1
20260902150023 18 92 1.6 4.8 0.00 0.30 0.00 95 1018.0
20260902144521 18 205 1.6 4.8 0.00 0.33 0.00 95 1017.9
20260902143021 18 192 1.6 3.2 0.00 0.33 0.00 95 1017.9
20260902141532 18 204 1.6 3.2 0.00 0.33 0.00 95 1018.4
20260902140018 18 238 0.0 3.2 0.00 0.33 0.00 95 1018.3
20260902134516 18 200 1.6 4.8 0.00 0.33 0.00 95 1017.8
20260902133014 18 146 0.0 3.2 0.00 0.33 0.00 95 1017.7
20260902131521 18 146 0.0 3.2 0.00 0.33 0.00 95 1017.5
20260902130013 18 246 1.6 4.8 0.00 0.33 0.00 95 1017.4
20260902124510 18 188 1.6 4.8 0.00 0.33 0.00 95 1017.4
20260902123010 18 138 1.6 4.8 0.00 0.33 0.00 95 1017.3
20260902121509 18 75 0.0 1.6 0.00 0.33 0.00 95 1017.2
20260902120008 18 75 0.0 1.6 0.00 0.33 0.00 95 1017.0
20260902114511 18 75 0.0 3.2 0.00 0.33 0.00 95 1017.0
20260902113004 19 75 0.0 3.2 0.00 0.33 0.00 95 1017.2
20260902111503 19 75 0.0 1.6 0.00 0.33 0.00 95 1017.1
20260902110006 19 75 0.0 1.6 0.00 0.33 0.00 95 1017.1
20260902104505 19 75 0.0 3.2 0.00 0.33 0.00 95 1016.7
20260902103100 19 75 0.0 3.2 0.00 0.33 0.00 94 1016.8
20260902101617 20 221 0.0 3.2 0.00 0.33 0.00 95 1016.9
20260902100058 20 244 0.0 3.2 0.00 0.33 0.00 94 1016.7
20260902094556 20 236 0.0 3.2 0.00 0.33 0.00 95 1016.5